Regional Weather Roundup
Issued by NWS

Home | Current Version | Previous Version | Text Only | Print | Product List | Glossary Off
Versions: 1 2 3 4 5 6 7 8 9 10 11 12 13 14 15 16 17 18 19 20 21 22 23 24 25 26 27 28 29 30 31 32 33 34 35 36 37 38 39 40 41 42 43 44 45 46 47 48 49 50

000
ASUS45 KCYS 112010
RWRWY

WYOMING REGIONAL WEATHER ROUNDUP
NATIONAL WEATHER SERVICE CHEYENNE WY
100 PM MST THU FEB 11 2016

NOTE:  "FAIR" INDICATES FEW OR NO CLOUDS BELOW 12,000 FEET
WITH NO SIGNIFICANT WEATHER AND/OR OBSTRUCTIONS TO VISIBILITY.

WYZ001-112100-
YELLOWSTONE NATIONAL PARK

CITY           SKY/WX    TMP DP  RH WIND       PRES   REMARKS
LK YELLOWSTONE   N/A     35  22  58 CALM      30.35F
W YELLOWSTONE  NOT AVBL

$$
WYZ002>013-054>058-071-098>099-112100-
NORTHERN WYOMING

CITY           SKY/WX    TMP DP  RH WIND       PRES   REMARKS
JACKSON        MOSUNNY   28  23  80 CALM      30.36F
CODY           FAIR      55  18  22 N16G25    30.17F
GREYBULL       FAIR      57  24  28 N8        30.15F
WORLAND        FAIR      48  25  40 CALM      30.18S
SHERIDAN       PTSUNNY   57  24  28 NW29G38   30.15F
BUFFALO        FAIR      51  26  37 N29G37    30.14R
GILLETTE       FAIR      52  25  35 NW29G37   30.10F
HULETT         FAIR      52  27  37 NW24G36   30.08S
NEWCASTLE      FAIR      52  23  32 NW25G36   30.09S

$$
WYZ014>020-022>026-101>103-112100-
CENTRAL WYOMING

CITY           SKY/WX    TMP DP  RH WIND       PRES   REMARKS
BIG PINEY      FAIR      40  22  48 CALM      30.34F
PINEDALE         N/A     37  23  56 E6        30.35S WCI  33
DUBOIS         FAIR      50  14  23 NW24G31   30.22R
LANDER         FAIR      51  24  34 SE5       30.17S
RIVERTON       FAIR      44  26  49 NE7       30.19F
CASPER         FAIR      44  25  47 SW16      30.18S
DOUGLAS        NOT AVBL

$$
WYZ021-027>030-104>119-112100-
SOUTHERN WYOMING

CITY           SKY/WX    TMP DP  RH WIND       PRES   REMARKS
EVANSTON       FAIR      38  21  50 SW9       30.39F WCI  31
KEMMERER       FAIR      41  23  48 W6        30.39F
FORT BRIDGER   CLEAR     45  21  39 W23       30.40S
ROCK SPRINGS   FAIR      41  20  43 SW22      30.35F
DIXON          FAIR      36  23  60 E3        30.38F
RAWLINS        FAIR      39  21  48 SW20G32   30.26S WCI  29
SARATOGA       FAIR      41  23  48 W22G30    30.28R
LARAMIE        CLOUDY    50  25  37 W17G26    30.20F
CHEYENNE       FAIR      53  24  32 NW23G38   30.12F
TORRINGTON     FAIR      56  25  30 NW25G33   30.10F
PINE BLUFFS    FAIR      54  23  30 NW30G43   30.13R

$$



USA.gov is the U.S. government's official web portal to all federal, state and local government web resources and services.